OpenBCM V1.07b12 (Linux)

Packet Radio Mailbox

DB0FHN

[JN59NK Nuernberg]

 Login: GUEST





  
CX2SA  > KEPS     24.09.04 03:25l 168 Lines 7914 Bytes #999 (0) @ AMSAT
BID : ORB04267.N
Read: GUEST DL7NDR
Subj: 2Line Orbital Elements 04267.AMSAT
Path: DB0FHN<DB0MRW<DB0ERF<DB0FBB<DB0ACC<DB0EA<DB0RES<ON0AR<7M3TJZ<EA5AKC<
      CX2SA
Sent: 040924/0218Z @:CX2SA.LAV.URY.SA #:18027 [Minas] FBB7.00e $:ORB04267.N
From: CX2SA@CX2SA.LAV.URY.SA
To  : KEPS@AMSAT


HR AMSAT ORBITAL ELEMENTS FOR AMATEUR SATELLITES IN NASA FORMAT
FROM WA5QGD FORT WORTH,TX September 23, 2004
SEND SUBSCRIBE/UNSUBSCRIBE TO majordomo@amsat.org ONLY
BID: ORB04267.N

DECODE 2-LINE ELSETS WITH THE FOLLOWING KEY:
1 AAAAAU 00  0  0 BBBBB.BBBBBBBB  .CCCCCCCC  00000-0  00000-0 0  DDDZ
2 AAAAA EEE.EEEE FFF.FFFF GGGGGGG HHH.HHHH III.IIII JJ.JJJJJJJJKKKKKZ
KEY: A-CATALOGNUM B-EPOCHTIME C-DECAY D-ELSETNUM E-INCLINATION F-RAAN
G-ECCENTRICITY H-ARGPERIGEE I-MNANOM J-MNMOTION K-ORBITNUM Z-CHECKSUM

TO ALL RADIO AMATEURS BT

AO-07
1 07530U 74089B   04266.96005471 -.00000029  00000-0  10000-3 0 03274
2 07530 101.6730 312.1337 0012181 033.2970 326.8867 12.53568945366162
AO-10
1 14129U 83058B   04266.74235922 -.00000023  00000-0  10000-3 0  1052
2 14129  26.6456  70.3253 6030191 126.2600 305.7601  2.05867470160025
UO-11
1 14781U 84021B   04267.67761643  .00000596  00000-0  88070-4 0  5886
2 14781  98.1843 254.1888 0010356 131.7827 228.4252 14.79004528102408
RS-10/11
1 18129U 87054A   04266.96468633  .00000034  00000-0  20964-4 0 05064
2 18129 082.9198 075.7954 0013425 051.4084 308.8270 13.72744628864419
FO-20
1 20480U 90013C   04266.67456674 -.00000031  00000-0 -60042-5 0  7137
2 20480  99.0351 125.7164 0540817 125.9683 239.2829 12.83341770685187
RS-12/13
1 21089U 91007A   04267.65761361  .00000031  00000-0  16739-4 0  7353
2 21089  82.9180 108.6995 0030648 100.3828 260.0783 13.74441171683883
RS-15
1 23439U 94085A   04266.91038497 -.00000039  00000-0  10597-3 0 08241
2 23439 064.8162 179.7935 0155759 003.7260 356.4786 11.27549850401254
FO-29
1 24278U 96046B   04266.79112830 -.00000020  00000-0  13791-4 0  8017
2 24278  98.5828 345.9668 0350964 148.7919 213.4590 13.52903459400034
SO-33
1 25509U 98061B   04266.84312798  .00000266  00000-0  41671-4 0  2018
2 25509  31.4304 103.5952 0356786 349.5052   9.8279 14.27866699308583
AO-40
1 26609U 00072B   04259.42580772 -.00000110  00000-0  10000-3 0  4359
2 26609   9.7703 343.0238 7966699 320.3876   3.3706  1.25585724 17809
UO-14
1 20437U 90005B   04267.02685022 -.00000017  00000-0  87944-5 0  5985
2 20437  98.2071 285.5759 0009817 271.0955  88.9118 14.31371485765819
AO-16
1 20439U 90005D   04266.59094069  .00000033  00000-0  27730-4 0  2859
2 20439  98.2380 299.8153 0009976 280.2953  79.7100 14.31629671765807
WO-18
1 20441U 90005F   04267.16864842  .00000043  00000-0  31392-4 0  4739
2 20441  98.2533 304.4226 0010639 280.2511  79.7472 14.31705096765945
LO-19
1 20442U 90005G   04266.65967358  .00000055  00000-0  35865-4 0 02290
2 20442 098.2674 308.0201 0011145 281.0121 078.9805 14.31876446765932
UO-22
1 21575U 91050B   04266.86350324  .00000082  00000-0  39577-4 0  2105
2 21575  98.2044 236.8707 0007815 167.3206 192.8202 14.39414927692047
KO-23
1 22077U 92052B   04266.94088064 -.00000037  00000-0  10000-3 0 03172
2 22077 066.0901 346.1318 0009233 318.7638 041.2682 12.86425276569210
AO-27
1 22825U 93061C   04267.16302170  .00000123  00000-0  64469-4 0  9457
2 22825  98.2461 270.9643 0007822 341.1456  18.9450 14.29085987573088
IO-26
1 22826U 93061D   04267.58925073  .00000051  00000-0  36171-4 0  6239
2 22826  98.2423 272.6510 0009004 337.9225  22.1569 14.29322725573206
KO-25
1 22828U 93061F   04267.57538927 -.00000028  00000-0  48733-5 0  8839
2 22828  98.2372 272.8737 0009317 313.8432  46.1958 14.29642067541425
TO-31
1 25396U 98043C   04266.91821672 -.00000043  00000-0  00000-0 0 01173
2 25396 098.5667 335.7189 0001875 216.4807 143.6245 14.23634396322387
GO-32
1 25397U 98043D   04266.82191419 -.00000101  00000-0 -26059-4 0  5652
2 25397  98.5566 333.6329 0000582 193.4037 166.7126 14.23051530322301
UO-36
1 25693U 99021A   04267.76268045  .00000186  00000-0  44770-4 0  4742
2 25693  64.5598  21.8542 0046037 246.2602 113.3674 14.78387005292436
AO-37
1 26065U 00004E   03315.96377143  .00000145  00000-0  70138-4 0 09527
2 26065 100.1923 058.7024 0036902 257.3642 102.3411 14.35620788198602
SO-41
1 26545U 00057A   04267.67797736  .00000349  00000-0  64911-4 0  8849
2 26545  64.5594  38.3482 0019793 354.8262   5.2622 14.79861312215483
MO-46
1 26548U 00057D   04267.27845402  .00000360  00000-0  62799-4 0  9848
2 26548  64.5583  25.5191 0020103 336.3141  23.7044 14.82412324215715
SO-42
1 26549U 00057E   04266.85825468  .00000242  00000-0  51982-4 0 09663
2 26549 064.5503 048.0454 0019680 009.8009 350.3471 14.78752870215220
NO-44
1 26931U 01043C   04267.72427580  .00000249  00000-0  12989-3 0  8595
2 26931  67.0529 194.0440 0006725 272.3618  87.6712 14.29324132155680
AO-49
1 27605U 02058A   04267.20106708  .00000177  00000-0  48608-4 0  5438
2 27605  64.5579 227.0166 0082756 292.1411  67.0905 14.71932357 94552
SO-50
1 27607U 02058C   04267.37686255  .00000458  00000-0  93202-4 0  5249
2 27607  64.5574 230.6278 0083981 291.0518  68.1618 14.70727510 94498
AO-51
1 28375U 04025K   04267.66342037  .00000015  00000-0  17975-4 0   671
2 28375  98.2497 334.2587 0083733 316.3698  43.0899 14.40390239 12245
NOAA-10
1 16969U 86073A   04267.43773819  .00000046  00000-0  37363-4 0  4021
2 16969  98.7605 266.6364 0012360 185.2782 174.8277 14.27213199937044
NOAA-11
1 19531U 88089A   04267.31313748 -.00000104  00000-0 -30954-4 0  2604
2 19531  98.8624 350.5505 0011227 351.6472   8.4515 14.14728560825198
NOAA-12
1 21263U 91032A   04267.79520859  .00000099  00000-0  41984-4 0  7472
2 21263  98.6790 254.5637 0013615 121.7151 238.5847 14.25413304694330
MET-3/5
1 21655U 91056A   04267.82629886  .00000051  00000-0  10000-3 0  6513
2 21655  82.5605 346.8365 0013183 174.0611 186.0669 13.16994679630255
MET-2/21
1 22782U 93055A   04266.62530504 -.00000116  00000-0 -11853-3 0   112
2 22782  82.5454 113.2395 0022858 150.5643 209.6777 13.83569012558570
OKEAN-4
1 23317U 94066A   04266.91975822  .00000537  00000-0  64754-4 0 04532
2 23317 082.5414 146.5507 0021433 300.1184 059.7904 14.81888581536325
NOAA-14
1 23455U 94089A   04267.78762245  .00000166  00000-0  88032-4 0  2899
2 23455  99.1316 305.2502 0009812  35.0989 325.1305 14.13490239501956
SICH-1
1 23657U 95046A   04266.96512993  .00000425  00000-0  51798-4 0 02964
2 23657 082.5261 287.3089 0022567 282.7342 077.1350 14.80921602488406
NOAA-15
1 25338U 98030A   04267.78739192  .00000111  00000-0  47836-4 0  7382
2 25338  98.5209 278.1927 0011495  59.3785 300.9015 14.24452743330830
RESURS
1 25394U 98043A   04267.21511578  .00000050  00000-0  40658-4 0  9077
2 25394  98.5738 337.5706 0001293 170.1962 189.9242 14.24023700322451
FENGYUN1
1 25730U 99025A   04267.65726602  .00000139  00000-0  98791-4 0  2393
2 25730  98.6072 274.1595 0015441 138.6213 221.6132 14.11778567276901
OKEAN-0
1 25860U 99039A   04266.96526662  .00000197  00000-0  37982-4 0 02837
2 25860 097.7907 298.2033 0001647 050.2146 309.9207 14.73117420278664
NOAA-16
1 26536U 00055A   04267.82049179  .00000252  00000-0  13738-3 0   345
2 26536  98.9733 219.3031 0011336  97.1332 263.1606 14.12155438206467
NOAA-17
1 27453U 02032A   04267.77595319  .00000179  00000-0  78624-4 0   598
2 27453  98.6931 338.9349 0012657 106.8465 253.4578 14.23572427116930
HUBBLE
1 20580U 90037B   04267.23692608  .00000504  00000-0  40188-4 0  1614
2 20580  28.4666 207.6793 0003901 326.7005  33.3761 14.99316304590130
UARS
1 21701U 91063B   04267.15106163  .00000111  00000-0  26775-4 0  2720
2 21701  56.9791 192.3806 0005199 116.4547 243.7084 15.03622692713321
PO-34
1 25520U 98064B   04266.31840233  .00001238  00000-0  53293-4 0   163
2 25520  28.4602 302.5172 0006029 191.7481 168.2975 15.15747795325892
ISS
1 25544U 98067A   04267.95243383  .00120810  00000-0  10387-2 0  7548
2 25544  51.6342 181.6280 0009964 144.8985 322.5176 15.68386928333838
OO-38
1 26063U 00004C   04267.14295929 -.00000015  00000-0  15079-4 0  1671
2 26063 100.2262  72.0262 0037331  86.7238 273.8197 14.35668603243976
NO-45
1 26932U 01043D   04267.92342482 -.00000150  00000-0 -26388-4 0  8531
2 26932  67.0576 193.1764 0005322 286.4149  73.6555 14.29442384155746


Read previous mail | Read next mail


 21.12.2025 19:55:48lGo back Go up